Location: Natural Bridges National Monument
(37.6093°N, 109.9767°W)
Time: 00:39:54
(UTC-06:00)

Cosmos 1727 Rocket - Visible Passes

Search period start: 28 July 2017 00:00
Search period end: 07 August 2017 00:00
Orbit: 961 x 997 km, 82.9° (Epoch: 26 July)

Date Brightness Start Highest point End Pass type
(mag) Time Alt. Az. Time Alt. Az. Time Alt. Az.
28 Jul 5.9 04:01:08 10° NNE 04:06:18 27° ENE 04:11:25 10° SE visible
28 Jul 4.5 05:46:08 10° NNW 05:51:50 40° W 05:57:30 10° SSW visible
29 Jul 4.8 04:26:53 10° N 04:32:54 51° E 04:38:52 10° SSE visible
30 Jul 6.6 03:10:34 10° NE 03:13:03 12° ENE 03:15:31 10° E visible
30 Jul 3.9 04:53:05 10° N 04:59:18 86° W 05:05:27 10° S visible
31 Jul 6.0 03:34:58 10° NNE 03:39:54 24° ENE 03:44:46 10° SE visible
31 Jul 4.3 05:19:41 10° NNW 05:25:31 45° W 05:31:18 10° SSW visible
01 Aug 4.9 04:00:36 10° N 04:06:31 45° ENE 04:12:22 10° SSE visible
01 Aug 5.1 05:46:50 10° NW 05:51:33 23° W 05:56:16 10° SW visible
02 Aug 6.6 02:45:05 10° NE 02:46:35 11° ENE 02:48:06 10° E visible
02 Aug 4.0 04:26:44 10° N 04:32:57 86° E 04:39:07 10° S visible
03 Aug 6.0 03:08:49 10° NNE 03:13:28 22° ENE 03:18:05 10° ESE visible
03 Aug 4.2 04:53:15 10° NNW 04:59:11 50° W 05:04:18 14° SSW visible
04 Aug 5.0 03:34:19 10° N 03:40:07 41° ENE 03:44:53 15° SE visible
04 Aug 5.0 05:20:17 10° NNW 05:25:16 26° W 05:29:32 13° SW visible
05 Aug 4.0 04:00:23 10° N 04:06:35 77° E 04:10:12 26° SSE visible
05 Aug 5.7 05:48:28 10° NW 05:51:10 13° W 05:53:52 10° WSW visible
06 Aug 6.1 02:42:43 10° NNE 02:47:02 19° ENE 02:50:56 11° ESE visible
06 Aug 4.0 04:26:51 10° NNW 04:32:52 56° W 04:35:36 32° SSW visible
